GEFSCGP_850_meantemp_000.txt.gz
Temperature
21 20 19 20 20 21 21 21 21 21 22 21 20 18 18 19 19 18 17 17 16 16 16 17 17 17 18 19 19 19 20 20 19 19 18 18 18 18 18 18 18 17 17 17
19 20 21 21 22 21 21 21 20 21 21 21 20 19 18 18 16 16 16 16 16 17 18 18 18 18 19 18 18 19 20 19 18 18 18 18 18 17 17 17 17 17 17 17
20 22 22 22 21 21 20 20 20 19 20 20 20 19 17 17 16 16 16 16 15 16 18 19 21 20 18 18 19 20 21 20 19 18 18 18 17 17 17 16 16 17 18 18
21 22 22 22 21 21 20 21 21 20 19 18 19 18 18 15 15 16 16 16 15 15 16 16 16 17 17 18 18 19 20 21 20 20 18 17 16 16 16 16 15 16 16 17
21 21 22 22 21 22 21 20 19 19 19 18 18 17 17 15 15 16 16 16 16 17 17 18 17 17 18 18 18 19 19 20 20 20 18 17 16 15 14 14 15 15 16 16
21 22 22 22 21 21 20 19 17 15 15 17 17 17 16 15 15 15 16 17 18 18 19 19 19 18 17 16 16 16 17 18 19 18 17 16 15 15 14 15 15 15 15 15
20 21 21 22 21 20 18 18 16 16 16 17 15 16 16 16 15 15 15 16 18 18 18 18 18 18 17 16 16 15 16 17 17 17 17 15 15 15 15 14 15 15 15 15
18 17 21 21 21 20 18 16 16 15 15 15 16 16 16 16 15 15 16 16 16 16 16 16 16 15 15 14 15 15 15 15 14 14 15 15 14 15 14 14 14 14 14 15
18 19 21 20 19 19 16 16 16 15 13 12 14 15 17 15 14 15 15 15 16 17 17 17 16 15 15 15 14 14 14 14 14 14 14 14 14 14 13 13 13 13 13 13
19 18 20 19 19 16 16 15 13 15 14 13 14 13 16 16 15 15 14 15 16 17 17 16 16 15 15 15 15 15 14 14 14 14 14 14 14 14 13 13 13 13 13 13
18 18 18 19 18 17 16 14 14 13 13 13 14 15 14 16 16 14 14 16 16 16 16 15 15 15 15 14 14 14 14 13 13 13 14 14 14 13 13 13 13 13 13 13
18 15 17 17 17 16 16 14 13 14 13 11 11 14 15 14 13 13 14 15 15 15 15 14 14 14 14 14 13 13 13 13 13 14 14 14 14 13 13 13 13 13 13 13
18 16 16 17 17 16 16 13 11 10 12 12 12 14 15 14 14 15 15 15 15 15 14 13 13 14 14 13 12 11 12 13 13 14 14 14 13 13 13 13 13 13 13 13
17 15 16 16 17 17 16 15 12 12 11 13 12 14 15 15 13 14 15 15 14 13 12 12 12 13 13 12 12 11 12 13 13 14 14 13 13 13 13 13 13 13 13 13
15 16 15 15 15 16 16 16 13 12 13 13 15 12 14 14 13 14 14 14 14 13 12 11 11 12 11 11 12 11 12 13 13 13 13 13 13 13 13 13 12 12 12 13
15 17 15 16 17 16 15 16 15 13 13 12 13 13 15 14 14 14 14 14 14 13 12 12 11 11 11 11 11 12 13 12 12 12 12 12 13 13 13 12 12 12 12 12
15 14 14 14 16 16 14 16 16 15 14 13 13 15 14 13 11 12 15 15 15 14 12 11 11 12 11 11 12 12 12 11 12 12 12 12 12 12 13 12 12 12 12 12
12 11 12 13 14 13 16 16 16 15 15 14 14 13 12 13 15 15 16 16 15 14 13 12 11 11 11 11 11 11 12 12 12 12 12 12 12 12 12 12 12 12 12 12
11 12 13 12 13 14 15 17 16 16 16 16 14 14 14 14 13 15 17 16 16 15 13 12 12 11 11 11 11 11 11 12 12 12 12 12 11 11 11 11 12 12 12 11
11 11 13 12 12 13 15 17 17 16 15 17 15 14 13 12 13 15 18 17 16 15 14 13 12 11 11 11 11 11 11 11 11 11 11 11 11 11 11 11 11 11 11 11
13 12 12 12 12 13 15 16 17 15 15 18 17 17 14 13 16 18 17 17 16 15 14 13 12 11 11 10 10 10 10 10 11 11 11 10 10 10 10 10 10 11 11 11
13 13 13 12 12 12 16 16 14 15 17 18 18 18 17 18 19 18 17 16 15 15 14 13 12 11 11 10 10 10 10 10 10 10 10 10 10 10 10 10 10 10 11 10
12 13 13 13 13 15 17 17 17 17 17 18 18 18 18 18 19 18 17 16 16 15 14 13 12 11 11 11 11 11 10 10 10 10 10 10 10 10 10 10 10 10 10 10
13 13 12 12 13 14 16 16 17 17 17 17 18 18 17 17 18 18 17 16 16 15 14 13 12 11 11 11 11 11 10 10 10 9 9 9 9 9 9 10 10 10 10 9
14 13 11 11 13 14 16 16 17 17 17 17 18 18 18 18 18 18 18 17 16 15 14 13 12 12 11 11 11 11 10 10 9 9 8 8 9 9 9 9 9 10 10 10
12 13 12 14 15 15 15 16 17 16 17 17 17 18 18 18 18 18 18 17 16 15 14 13 12 12 12 11 11 11 10 10 9 9 8 8 8 8 9 9 9 9 10 9

GEFSCGP_850_meantemp_006.txt.gz
Temperature
26 27 27 27 27 27 27 27 27 27 27 27 27 26 25 24 24 22 21 20 19 18 18 18 18 18 19 19 19 19 20 20 20 20 20 19 19 18 18 18 19 19 19 19
27 27 27 26 26 27 27 27 27 27 27 27 27 27 24 23 22 21 20 19 19 19 18 18 18 18 18 18 18 18 19 19 19 20 21 21 20 20 19 18 19 19 20 19
26 26 26 26 26 26 26 26 26 26 27 27 27 27 25 23 22 21 20 20 19 19 19 19 19 18 18 18 17 17 17 17 18 19 19 20 19 19 19 18 18 19 19 19
26 26 26 26 26 26 26 26 25 25 26 26 27 26 28 25 24 23 22 21 21 20 20 20 20 19 19 18 18 17 17 17 17 17 17 18 18 18 19 18 18 18 18 17
26 26 26 26 26 26 26 26 25 25 25 25 26 26 27 25 24 24 23 22 21 21 20 20 20 19 19 19 18 18 17 17 17 17 17 17 17 17 17 16 17 17 16 15
26 26 26 26 26 26 26 25 25 25 26 25 26 25 26 26 25 24 23 22 22 21 20 20 19 19 18 18 18 17 17 16 16 16 16 16 16 16 15 15 15 15 15 14
25 26 26 26 26 25 25 25 24 25 25 25 25 24 25 24 24 24 23 23 22 21 20 19 19 18 17 17 17 16 16 16 15 15 15 15 15 15 15 15 14 14 14 14
24 24 26 26 25 25 25 24 23 22 23 24 25 24 25 24 23 23 22 22 22 21 20 19 18 17 16 16 16 16 15 15 15 14 14 15 15 15 14 14 14 14 14 14
25 25 25 25 25 25 25 24 24 23 23 23 24 24 25 24 23 23 23 22 22 21 20 19 18 17 16 15 15 15 15 15 14 14 14 14 14 14 14 14 14 13 14 14
26 24 26 25 25 24 24 25 23 23 22 22 23 24 24 24 24 24 23 23 22 21 20 19 17 16 15 14 14 14 14 14 14 14 14 13 13 13 13 13 13 13 13 13
25 24 25 25 24 25 23 23 23 23 22 21 22 24 25 24 24 23 23 23 22 20 19 18 17 16 15 14 13 13 13 13 13 13 13 12 12 12 12 12 12 12 13 13
25 24 24 25 25 24 24 24 23 22 21 22 21 22 25 24 24 23 23 22 21 19 18 17 16 15 14 14 13 13 13 13 13 12 12 11 11 11 11 11 12 12 12 12
24 23 22 24 24 23 23 23 23 23 22 22 21 22 25 24 23 23 22 22 20 18 18 17 16 15 14 14 13 13 13 12 12 12 11 11 11 11 11 11 12 12 12 12
22 23 22 23 24 24 23 23 23 22 22 22 22 23 24 24 23 23 22 21 20 18 17 17 16 15 14 14 13 13 12 12 12 12 12 11 11 11 11 11 11 12 12 12
22 22 23 23 24 23 23 23 23 22 22 21 22 22 23 23 23 22 21 20 19 18 18 17 16 15 14 13 13 13 12 12 12 12 12 11 11 11 11 11 11 12 11 11
22 21 22 22 23 23 23 23 23 23 23 22 22 22 24 23 22 22 21 20 19 19 18 17 16 15 14 13 13 13 13 12 12 12 12 12 11 11 11 11 11 11 11 11
22 21 21 22 23 22 22 23 23 23 23 23 22 23 23 22 22 21 20 20 19 19 18 17 16 15 14 13 13 13 13 12 12 12 12 12 12 11 11 11 11 11 11 11
20 20 20 21 21 20 23 24 23 22 22 23 23 23 22 22 20 20 19 18 19 18 17 17 16 15 14 13 13 12 12 13 12 12 12 12 12 12 11 11 11 12 11 11
20 20 21 21 21 21 23 23 22 21 21 22 22 22 21 20 20 21 21 19 18 18 17 16 15 15 14 13 13 12 12 12 13 12 12 12 12 12 11 11 11 12 12 11
20 19 20 20 19 19 22 22 21 21 20 22 21 20 20 20 20 21 20 19 18 17 17 16 15 14 14 13 13 12 12 12 12 12 12 12 12 12 12 11 11 11 11 11
20 20 20 20 20 21 22 21 20 18 19 19 19 19 18 19 19 19 19 19 18 17 16 16 15 14 13 13 12 12 12 12 12 12 11 11 12 12 11 11 11 11 11 11
20 20 19 18 18 19 20 19 18 17 18 18 18 18 18 18 18 19 19 19 17 16 16 16 15 14 13 12 12 12 12 12 12 11 11 11 11 12 11 11 11 11 11 11
20 20 19 18 18 19 18 18 17 16 15 15 16 17 17 18 18 18 18 18 18 16 15 15 15 14 12 12 11 12 12 11 11 11 11 11 11 11 11 11 11 11 10 11
20 19 18 17 18 17 16 15 13 13 13 13 14 15 16 17 17 18 18 18 18 16 15 15 15 14 13 12 11 11 11 11 11 11 11 11 11 11 10 11 11 11 10 11
17 17 16 16 15 13 13 11 11 11 11 12 12 13 13 14 15 16 17 17 17 16 15 15 15 15 14 12 12 11 11 11 11 11 11 11 11 11 11 11 11 10 11 11
11 10 10 10 8 9 9 9 9 9 10 10 11 11 11 12 12 12 13 15 15 15 15 14 14 14 14 12 12 11 11 11 11 11 11 11 11 11 11 10 10 10 10 10

GEFSCGP_850_meantemp_012.txt.gz
Temperature
29 29 29 30 30 30 30 30 30 32 33 31 30 30 31 32 31 30 29 27 25 24 22 21 21 21 20 20 20 20 19 19 19 19 19 19 19 19 19 19 19 19 19 19
30 29 30 30 30 30 30 30 30 31 32 31 30 30 31 31 31 29 28 27 25 23 22 21 20 20 20 20 20 19 19 19 19 19 18 19 19 19 19 19 19 19 19 19
29 29 30 29 29 29 29 29 29 29 29 29 29 29 30 31 30 27 26 25 25 24 23 22 22 21 21 21 20 20 19 19 19 18 18 18 18 18 18 18 19 19 19 19
29 30 29 29 29 29 28 29 29 28 27 27 28 27 29 30 28 27 26 25 25 24 24 23 23 22 21 21 20 20 19 18 18 17 17 17 17 17 17 18 18 18 18 18
29 29 29 28 29 29 28 29 28 28 27 27 28 27 29 29 26 26 26 25 25 25 24 24 23 22 21 21 20 19 19 18 17 17 16 16 16 16 17 17 17 17 17 17
29 30 29 29 29 29 29 28 28 28 28 26 27 26 27 28 27 26 26 26 25 25 24 24 23 22 21 20 20 19 18 17 17 16 16 16 16 16 16 16 16 16 17 17
27 28 29 29 28 29 28 26 25 26 26 26 25 25 27 28 28 28 27 26 25 25 25 24 23 22 21 20 19 18 17 17 16 16 16 16 16 16 16 16 16 16 16 16
26 26 28 29 28 27 27 26 25 24 25 26 27 27 29 29 28 27 27 26 26 25 25 24 23 22 21 20 19 18 17 16 16 15 15 15 15 15 15 15 15 15 15 16
26 26 29 29 29 28 27 27 28 26 25 25 27 28 28 28 27 27 27 26 26 25 25 24 24 23 21 20 19 17 16 15 15 15 15 15 14 14 14 14 15 15 15 15
28 26 28 29 29 28 28 27 26 25 24 24 25 26 26 26 26 27 27 26 26 26 25 24 23 22 21 19 18 17 15 15 15 14 14 14 14 13 14 14 14 14 14 14
28 26 27 28 28 27 27 27 26 26 25 23 23 25 28 27 27 27 27 26 25 25 24 24 23 21 20 19 18 16 15 15 14 14 14 13 13 13 13 13 13 13 13 13
28 27 26 27 28 28 28 27 26 24 24 24 24 25 28 27 27 27 26 26 25 24 23 23 22 21 20 19 18 16 15 15 14 14 13 13 13 12 12 12 12 12 12 12
26 24 23 25 26 27 27 27 27 26 25 25 24 25 28 28 27 27 26 25 24 24 23 23 22 21 20 19 17 16 16 15 14 13 13 13 12 12 12 12 12 12 12 12
26 24 23 23 24 26 26 27 27 27 25 25 25 26 27 27 26 26 25 24 24 23 23 22 21 20 19 18 17 16 15 15 14 14 13 12 12 12 12 11 11 11 11 11
26 24 25 25 26 26 27 27 27 26 26 25 25 25 26 26 25 25 24 23 23 23 22 22 21 20 19 18 17 16 15 15 14 14 13 13 12 12 12 12 12 11 11 11
26 24 24 24 26 26 27 27 27 27 26 26 25 25 26 25 24 23 22 22 22 22 22 22 21 20 19 18 17 16 16 15 14 14 13 13 12 12 12 12 12 11 11 11
25 24 23 23 25 25 25 27 26 26 26 25 24 24 24 23 22 22 21 21 22 22 21 21 21 20 19 18 17 16 15 15 14 14 13 13 13 12 12 12 12 11 11 11
25 23 22 23 23 23 26 27 26 26 25 23 23 22 22 21 20 21 21 20 20 20 20 20 20 20 19 18 17 16 16 15 14 14 13 13 13 12 12 12 12 12 11 11
25 23 22 22 23 24 25 24 24 23 22 19 19 19 19 19 19 20 19 18 18 19 19 19 20 19 19 18 17 17 16 15 14 14 14 13 13 13 12 12 12 12 12 12
25 23 22 22 21 20 21 22 22 22 21 17 17 17 17 17 17 17 17 17 17 17 17 18 19 19 19 18 17 16 16 15 14 14 14 13 13 13 13 12 12 12 12 12
24 23 22 21 20 21 17 19 20 18 14 13 13 13 13 14 14 14 15 15 15 15 16 17 17 18 18 18 17 16 16 15 15 14 14 13 13 13 13 13 12 12 12 12
24 23 22 21 20 18 14 15 13 11 10 10 10 10 10 10 11 11 12 13 13 14 14 14 15 15 17 17 16 16 15 15 15 14 14 13 13 13 12 12 12 12 12 11
21 20 21 19 15 11 10 10 9 9 9 8 8 9 9 9 9 9 10 11 11 12 12 12 13 13 14 15 15 15 15 14 14 14 14 13 13 13 12 12 12 12 12 11
19 18 19 17 13 12 10 9 9 8 8 8 9 9 9 9 9 9 9 9 10 11 11 11 11 11 12 13 14 14 14 14 14 13 13 13 13 12 12 12 12 12 11 11
14 15 15 13 10 10 10 9 8 8 9 9 9 10 10 10 10 10 10 10 10 10 10 10 10 10 11 12 12 13 14 13 13 13 13 13 12 12 12 12 12 12 12 12
12 12 12 10 9 9 8 8 8 8 9 9 10 10 11 10 10 10 10 10 10 10 10 10 10 10 10 10 11 11 13 13 13 13 13 12 12 12 12 12 11 11 12 12

GEFSCGP_850_meantemp_018.txt.gz
Temperature
25 22 21 22 23 24 25 25 25 26 26 25 25 25 26 27 26 25 23 22 22 22 22 22 22 22 21 21 21 21 21 20 20 20 19 19 19 19 19 19 19 19 19 19
22 22 24 25 27 27 26 25 24 25 26 26 25 24 24 24 25 24 23 22 22 22 22 22 22 22 21 21 21 21 21 21 20 20 19 19 19 19 18 19 19 18 18 18
23 24 27 27 27 26 25 25 24 24 24 24 24 22 22 22 23 23 22 22 22 22 22 22 22 22 22 21 21 21 21 21 20 20 19 18 18 18 18 18 18 18 18 18
25 27 27 27 26 26 24 25 25 24 22 20 22 20 21 21 21 21 21 22 22 22 22 22 22 22 22 22 22 21 21 21 20 19 18 18 17 17 17 17 17 17 17 17
25 26 27 26 27 27 26 26 25 24 22 21 21 20 20 20 21 20 21 22 23 23 23 23 23 23 23 22 22 21 21 20 20 19 18 17 17 17 16 16 16 16 17 16
26 27 27 26 27 27 26 24 22 20 18 19 21 21 19 19 20 20 21 22 23 23 24 24 23 23 22 22 21 21 21 20 19 18 17 17 16 16 16 16 16 16 16 16
24 25 25 26 26 25 24 19 18 19 18 19 20 20 19 20 21 21 21 22 23 24 24 24 23 23 22 22 21 21 20 20 19 18 17 16 16 16 16 15 15 15 15 15
23 22 25 26 25 24 25 20 18 19 18 18 19 20 20 21 22 23 23 23 24 24 24 24 24 23 22 22 21 21 20 19 18 17 17 16 16 15 15 15 14 14 14 14
22 23 25 26 27 25 24 22 19 17 19 19 19 21 21 21 21 22 23 23 24 24 24 24 23 23 22 22 21 21 20 19 18 17 16 16 15 15 15 14 14 13 13 13
23 23 24 25 25 25 24 22 18 18 19 18 19 20 19 21 21 21 21 23 24 24 23 23 23 23 22 22 21 20 20 19 18 17 16 16 15 15 14 14 13 13 12 12
23 21 21 22 23 23 23 23 20 17 16 17 17 18 20 20 20 20 21 22 23 23 23 23 23 22 22 21 21 20 20 19 18 17 16 15 15 14 14 13 13 12 12 12
21 18 18 20 21 22 23 22 19 18 18 17 16 18 20 19 19 19 20 21 21 21 21 22 22 22 22 21 21 20 20 19 18 17 16 15 14 14 13 13 12 12 12 12
21 18 18 18 19 20 21 22 21 18 17 16 17 18 18 18 18 18 19 19 19 19 19 19 20 20 20 20 20 20 20 19 18 16 16 15 14 14 13 13 12 12 12 11
20 18 18 19 19 19 20 21 21 20 17 17 18 17 16 16 16 16 17 17 16 16 17 17 17 18 18 19 19 19 19 19 18 17 16 15 14 14 13 12 12 12 11 11
19 19 19 19 20 21 21 21 22 20 19 18 17 15 15 14 15 15 14 14 14 14 14 15 15 16 17 17 17 18 18 18 18 17 16 15 14 14 13 12 12 12 11 11
19 20 20 20 21 21 21 20 20 18 17 17 15 14 13 14 14 13 12 12 12 12 13 13 14 14 15 15 16 16 17 18 18 17 16 15 14 14 13 12 12 12 11 11
18 18 19 18 19 20 18 18 16 14 13 14 13 12 11 11 12 11 11 11 11 11 11 12 12 12 13 13 14 15 16 17 17 17 16 15 14 14 13 12 12 12 11 11
18 17 16 16 19 19 18 17 15 12 11 11 11 10 10 10 11 11 12 11 11 11 11 11 11 11 11 12 13 14 15 15 16 16 16 15 14 14 13 12 12 11 11 11
17 17 16 16 17 18 17 15 15 14 10 10 9 9 9 9 11 12 12 11 10 10 10 10 10 10 10 11 11 12 13 14 15 15 15 15 14 14 13 12 12 12 11 11
17 16 16 16 17 16 14 13 13 14 10 8 9 9 9 9 9 10 11 10 10 10 10 10 10 10 10 10 10 10 11 12 12 13 14 15 14 14 13 13 12 12 11 11
17 16 16 16 16 14 10 11 13 13 11 9 9 8 8 8 8 9 9 9 10 10 10 10 10 10 10 9 9 9 9 10 10 11 12 13 14 14 13 13 12 12 11 11
14 14 14 14 15 13 9 10 9 9 9 9 9 8 8 8 8 8 9 9 10 10 10 10 10 9 9 9 9 9 9 9 9 10 11 12 13 13 13 13 12 12 11 11
12 12 12 11 11 9 9 9 9 9 9 9 9 9 9 8 8 9 9 10 10 10 10 10 10 9 9 9 9 8 8 8 8 9 10 11 12 13 13 13 12 12 11 11
12 12 11 10 9 9 9 10 10 10 9 9 9 9 9 8 9 9 9 10 10 10 10 10 9 9 9 9 9 8 8 8 8 8 9 10 11 12 12 13 13 12 11 11
10 11 11 9 9 9 10 10 10 10 10 10 9 9 9 9 9 9 9 9 9 10 10 10 9 9 9 9 9 8 8 7 7 8 8 9 10 11 12 12 13 12 12 12
9 9 8 8 9 9 10 11 10 10 10 9 9 9 9 9 9 9 9 9 9 9 9 9 9 9 9 9 8 8 8 7 7 7 8 8 9 10 11 12 12 12 12 12

GEFSCGP_850_meantemp_024.txt.gz
Temperature
23 20 21 21 21 23 23 23 23 23 24 23 22 22 22 22 22 21 21 21 21 21 21 22 22 23 23 22 22 22 22 21 21 21 20 20 19 19 19 18 18 17 17 17
20 21 22 22 22 22 22 23 23 23 23 23 22 22 21 21 21 21 20 20 20 21 21 22 22 23 23 23 23 22 22 21 21 21 20 20 19 19 18 17 17 17 17 17
22 22 23 24 24 23 23 23 23 23 22 21 22 21 21 20 20 20 20 20 20 21 22 22 22 23 23 23 23 22 22 21 21 20 20 19 19 18 17 17 17 16 16 16
22 22 24 24 24 24 23 24 23 23 21 20 21 19 20 19 19 19 19 19 21 21 22 22 23 23 23 23 22 22 21 21 20 20 19 19 18 17 17 16 16 16 16 16
23 24 24 25 25 25 24 22 22 21 20 19 19 19 18 18 19 19 19 20 21 21 22 22 23 23 23 23 22 22 21 21 20 20 19 18 18 17 16 16 16 16 16 16
23 24 24 25 24 24 23 20 19 16 16 18 19 19 18 18 19 19 19 21 21 22 22 22 23 22 22 22 22 21 21 21 20 20 19 18 17 17 16 16 15 15 15 15
22 23 23 24 24 23 21 19 17 18 16 18 18 18 17 19 19 19 19 21 22 22 22 22 22 22 22 22 22 21 21 21 20 20 19 18 17 16 16 15 15 15 15 15
21 21 23 24 24 22 21 19 18 18 17 17 17 18 18 19 19 19 19 19 19 20 20 20 21 21 21 21 21 21 21 21 20 20 19 18 17 16 15 15 15 14 14 14
21 21 22 23 23 22 20 19 18 16 17 17 17 18 18 17 17 17 17 16 16 17 18 19 19 20 21 21 21 21 21 20 20 19 18 18 17 16 15 15 14 14 14 14
21 21 22 21 22 22 20 17 15 16 17 17 17 17 15 14 14 14 13 13 13 14 16 17 18 18 19 19 19 19 19 19 19 18 18 17 16 16 15 15 14 14 14 13
21 20 20 20 21 21 20 19 15 14 15 16 16 15 15 13 12 12 12 12 12 12 13 15 15 16 17 18 18 18 18 18 18 17 17 16 16 15 15 14 14 14 13 13
18 17 18 19 19 19 20 19 16 17 16 14 14 14 13 12 12 12 11 11 12 12 13 13 14 15 16 16 16 16 16 16 16 16 16 16 16 15 15 14 14 13 13 13
17 17 18 18 18 19 20 19 17 15 14 13 14 14 12 12 11 11 11 11 11 11 12 13 13 13 14 14 14 15 15 15 15 15 16 16 16 15 15 14 14 13 13 12
17 16 17 19 18 19 19 18 17 14 14 14 14 14 11 10 10 10 10 10 10 11 11 11 11 11 12 12 12 12 13 13 13 14 14 15 15 15 15 14 14 13 12 12
17 18 17 17 18 19 18 17 16 15 14 14 13 12 10 10 10 10 10 10 10 10 10 10 10 10 10 10 11 11 11 11 12 12 13 14 14 14 14 14 13 13 12 12
16 18 18 18 19 18 17 15 14 13 13 13 12 11 10 10 10 10 9 9 9 9 9 9 9 9 9 10 10 10 10 10 10 11 11 12 13 13 14 13 13 13 12 12
15 16 17 16 17 18 15 13 13 12 11 11 11 10 10 10 9 9 8 8 8 9 9 9 9 9 9 9 9 9 9 10 10 10 10 11 11 12 12 12 13 12 12 12
14 14 13 14 17 17 12 12 12 11 10 10 10 10 9 9 8 9 9 9 9 9 9 9 9 9 9 9 9 9 9 9 9 9 9 10 10 10 11 11 12 12 12 12
13 14 13 13 15 14 13 12 12 11 11 10 9 9 9 9 8 9 10 10 9 9 9 9 9 9 9 9 9 9 9 9 9 9 9 9 9 9 10 10 11 11 11 11
12 12 13 14 16 15 11 12 11 11 11 9 9 9 9 8 6 7 9 9 9 9 9 9 9 9 9 9 9 9 9 9 9 9 9 9 8 8 9 9 10 10 11 11
13 12 12 13 14 12 10 10 11 11 10 10 10 9 8 7 7 8 8 8 9 9 9 9 9 9 9 9 9 8 9 9 9 9 8 8 8 8 8 9 9 9 10 11
12 12 12 12 13 11 10 10 10 10 11 10 9 9 8 8 8 8 8 8 8 8 8 8 8 8 8 8 8 8 8 8 9 8 8 8 8 8 7 8 8 9 9 10
10 10 10 10 10 10 10 10 11 10 10 9 9 9 8 8 7 8 8 8 8 8 8 8 7 7 7 7 7 7 7 8 8 8 8 8 8 7 7 7 8 8 9 10
9 10 9 9 9 10 11 11 11 10 9 9 9 8 8 8 7 7 7 7 7 7 7 7 7 7 7 7 6 6 7 7 7 7 8 8 7 7 7 7 7 7 8 9
8 9 9 9 9 10 11 11 10 9 9 9 9 8 8 8 7 7 7 7 7 7 6 6 6 6 6 6 6 6 6 6 6 7 7 7 7 7 7 7 7 7 8 9
8 8 8 8 10 9 9 10 9 9 8 8 8 8 8 7 7 7 6 6 6 6 6 5 5 5 5 5 5 5 5 5 5 6 6 7 7 7 6 6 7 7 8 9

GEFSCGP_850_meantemp_030.txt.gz
Temperature
27 28 28 28 29 29 29 29 29 29 29 29 29 29 29 29 28 28 28 27 26 25 24 23 22 22 22 22 22 22 21 21 21 20 20 20 20 19 19 18 17 17 16 16
28 28 28 28 28 28 28 28 28 29 29 29 28 29 29 29 28 27 27 26 25 25 24 23 22 22 22 22 22 22 22 21 21 21 20 20 20 19 18 18 17 17 16 16
28 28 28 28 28 28 28 28 28 28 28 28 28 28 29 29 27 26 26 25 25 24 24 23 23 22 22 21 21 21 21 21 21 20 20 20 19 19 18 18 17 16 16 16
28 29 28 28 28 28 28 28 28 27 27 28 28 27 29 28 28 27 26 25 24 24 23 23 22 22 21 21 21 21 20 21 21 20 20 19 19 19 18 18 17 16 16 16
28 28 28 28 28 28 28 28 28 27 27 27 28 27 28 27 26 26 25 24 23 22 22 21 21 20 20 20 20 20 20 20 20 20 20 19 19 18 18 17 17 17 15 15
28 29 29 28 29 28 28 27 27 27 27 26 27 26 27 25 23 24 24 22 21 20 20 19 19 19 19 19 19 19 19 20 19 19 19 19 18 18 18 17 17 16 16 15
27 28 29 29 28 28 28 27 26 26 26 26 27 26 24 22 22 21 21 19 18 18 17 17 17 17 17 17 18 18 18 18 18 18 18 18 18 17 17 17 16 16 15 15
26 26 28 28 28 27 27 27 25 24 25 26 27 26 23 21 20 19 19 18 17 16 16 15 15 14 14 14 15 16 16 16 16 16 16 17 17 16 16 16 16 15 15 15
27 27 28 28 27 27 27 27 27 26 26 25 26 26 21 21 20 19 18 17 17 16 15 15 14 14 13 13 13 13 14 14 14 15 15 15 15 15 15 15 15 15 15 15
28 26 28 28 28 26 26 27 26 25 24 24 25 26 25 21 19 19 18 17 16 16 15 14 14 13 13 13 12 12 12 12 13 13 14 14 14 14 15 15 15 15 15 15
28 26 27 27 27 26 26 26 25 26 25 24 24 25 21 19 18 18 18 16 16 15 15 14 13 12 12 12 12 11 11 11 12 12 12 13 13 13 13 14 14 14 14 14
27 26 26 27 27 26 26 26 25 24 24 24 24 23 18 18 17 17 16 16 15 14 14 13 13 12 11 11 11 10 10 10 11 11 11 11 12 12 12 13 13 13 13 14
26 25 25 26 26 26 25 25 25 25 25 24 23 22 17 17 16 15 15 14 13 13 13 12 11 11 10 10 10 10 10 10 10 10 10 10 10 11 11 12 12 12 13 13
24 25 25 25 25 26 25 25 24 24 24 23 23 21 18 17 16 15 13 12 11 11 11 10 10 10 10 9 9 9 9 9 9 9 9 9 9 10 10 10 11 11 12 12
24 25 25 26 26 25 24 23 22 22 22 21 21 19 17 16 15 13 12 11 11 11 11 10 10 10 10 10 10 9 9 9 9 9 9 9 9 9 9 10 10 10 11 11
24 24 25 25 25 24 22 21 20 20 19 19 18 17 16 15 13 12 12 11 11 12 12 11 11 11 10 10 10 10 9 9 9 9 9 9 9 9 9 9 9 10 10 11
24 23 24 25 24 23 21 18 18 18 18 18 17 16 15 15 14 13 13 12 12 12 12 11 11 11 10 10 10 10 9 9 9 9 9 9 9 9 9 9 9 9 9 10
22 23 23 24 23 22 17 17 17 17 17 17 16 16 15 15 14 13 13 13 12 12 11 11 10 10 10 10 10 9 9 9 9 9 9 9 9 9 9 9 9 8 9 9
22 22 23 23 23 20 16 17 16 16 16 16 15 16 15 14 13 14 14 13 11 11 10 10 10 10 10 9 9 9 9 9 9 9 9 9 9 9 9 9 9 8 8 8
22 22 22 22 20 20 16 16 15 16 16 15 15 14 14 13 14 14 12 11 11 10 10 10 9 9 9 9 9 9 9 8 8 8 8 8 8 8 8 8 8 8 8 8
22 21 21 20 20 18 16 16 17 16 16 14 13 13 12 12 12 11 11 11 10 10 9 9 9 9 9 8 8 8 8 8 8 8 8 8 7 7 7 7 8 8 8 8
20 20 20 19 18 17 16 16 15 14 13 13 12 12 12 11 11 11 10 10 10 9 9 9 9 9 8 8 8 8 7 7 7 7 7 7 7 7 8 8 8 8 8 8
19 18 19 18 18 15 15 14 14 13 12 12 12 11 11 11 11 10 10 10 9 9 9 9 8 8 8 8 7 7 7 7 6 6 6 6 6 7 7 7 8 8 8 8
18 16 17 17 17 15 15 14 13 12 12 11 11 10 10 10 10 10 10 9 9 9 9 8 8 8 7 7 6 6 6 6 6 6 6 6 6 6 6 7 7 8 8 8
17 17 17 16 16 15 15 14 12 11 11 11 10 10 10 10 10 9 9 9 9 8 8 8 7 6 6 6 5 5 5 5 5 5 5 5 5 6 6 7 7 8 8 8
17 17 16 16 15 14 13 12 11 11 10 10 10 10 10 9 9 9 9 9 8 8 7 7 6 5 5 5 5 5 5 5 5 5 5 5 5 5 6 6 7 7 7 7

GEFSCGP_850_meantemp_036.txt.gz
Temperature
31 31 30 31 31 31 32 32 32 33 34 32 32 32 33 33 32 32 32 30 29 27 26 25 24 24 23 22 22 21 21 21 20 20 20 20 21 20 20 20 20 20 19 19
31 30 31 31 31 31 31 31 31 32 33 32 31 31 32 33 33 31 30 28 25 24 23 22 22 21 21 21 20 20 20 20 20 20 20 21 21 20 20 20 20 19 19 19
29 30 31 31 31 31 31 30 30 30 31 31 31 30 31 32 31 30 27 25 24 23 21 21 20 20 19 20 20 19 19 19 19 20 20 20 20 20 20 20 19 19 19 18
30 31 31 31 30 30 29 30 30 30 29 29 30 29 30 30 29 28 25 23 21 20 19 19 18 18 18 18 19 19 19 19 19 19 19 19 19 19 20 20 19 19 18 18
29 30 30 30 30 30 30 31 30 30 29 29 29 29 29 29 27 25 24 22 21 19 18 17 17 17 18 18 18 18 18 18 18 18 18 18 18 19 19 19 19 18 18 18
30 31 31 31 31 31 31 30 30 29 27 25 24 23 26 28 26 24 23 22 21 19 18 17 17 17 17 17 17 17 17 17 17 17 17 17 17 18 18 18 18 18 18 17
28 29 30 31 30 30 30 28 27 26 23 21 20 21 24 26 27 26 24 22 21 19 18 17 16 16 16 16 16 16 16 16 16 16 16 16 16 16 16 17 17 17 17 17
26 25 29 31 30 29 29 29 27 26 26 25 23 23 24 25 25 24 23 22 21 20 19 18 17 16 16 15 15 15 15 15 15 15 15 15 15 15 15 15 15 16 16 16
28 28 31 31 31 30 29 29 29 28 28 27 27 25 23 22 21 22 22 22 21 20 20 19 18 17 16 15 14 14 14 14 14 14 14 14 14 15 15 15 15 15 15 15
30 28 30 31 31 31 30 29 28 27 25 25 27 25 21 20 20 20 21 21 21 20 19 19 18 17 16 15 14 14 13 13 13 13 13 13 13 13 14 14 14 14 14 14
30 28 29 30 28 28 29 29 28 27 27 25 24 23 23 20 20 21 21 20 19 19 18 17 17 16 15 15 14 14 13 12 12 12 12 12 12 12 12 12 12 13 13 14
29 28 27 28 28 28 28 28 28 26 25 26 25 21 22 21 21 20 20 19 19 18 17 17 16 15 15 14 13 13 12 12 12 11 11 11 11 11 11 11 11 12 12 12
27 26 25 27 26 26 27 28 28 27 26 25 23 21 21 21 21 20 19 19 18 17 17 16 16 15 14 13 13 12 12 12 11 11 11 11 11 10 10 10 10 10 11 11
27 26 26 26 27 28 28 28 28 27 25 24 23 21 21 21 20 20 19 18 18 17 17 16 16 15 14 13 13 13 12 12 11 11 11 11 10 10 10 10 10 10 10 10
28 26 27 27 28 29 28 27 27 25 24 23 23 22 21 20 20 19 19 18 18 17 17 16 15 15 14 14 13 13 12 12 12 11 11 11 11 10 10 10 10 10 10 10
27 26 26 26 28 28 27 26 25 24 24 23 23 22 22 20 20 19 18 17 17 17 16 15 15 14 14 13 13 13 12 12 12 11 11 11 11 10 10 10 10 10 10 10
26 24 24 25 27 27 24 23 23 23 23 22 21 21 21 20 19 18 17 17 17 16 15 15 14 14 13 13 12 12 12 12 11 11 11 11 11 10 10 10 10 10 10 9
25 24 24 25 26 23 21 23 22 22 22 22 21 20 19 19 18 17 17 17 15 15 14 14 13 13 13 12 12 12 11 11 11 11 11 10 10 10 10 10 10 9 9 9
26 25 24 25 24 23 22 22 21 20 20 20 19 19 18 17 17 17 17 15 14 14 14 13 13 12 12 12 12 11 11 11 10 10 10 10 10 10 9 9 9 9 9 9
27 26 25 24 23 22 21 22 21 21 20 19 18 17 17 16 16 16 15 14 14 13 13 13 12 12 12 12 11 11 10 10 10 10 9 9 9 9 9 9 9 9 8 8
25 25 24 23 23 23 21 21 21 19 18 17 17 16 16 15 15 14 14 14 13 13 13 12 12 12 11 11 11 10 10 9 9 9 8 8 8 8 8 8 8 8 8 8
24 24 23 22 22 21 21 20 19 18 17 17 16 15 15 15 14 14 14 13 13 13 12 12 12 11 11 11 10 9 9 8 8 7 7 7 7 7 7 8 8 8 8 8
24 22 22 22 21 21 20 19 18 17 17 16 15 15 14 14 14 14 13 13 13 12 12 12 11 11 10 9 8 8 7 7 6 6 6 6 6 6 7 7 7 7 7 7
23 22 22 21 22 21 20 19 17 16 16 15 15 14 14 14 14 13 13 13 12 12 11 11 10 9 8 7 6 6 5 5 5 5 5 5 5 6 6 6 7 7 7 7
23 23 22 21 21 19 19 17 16 16 15 15 14 14 14 14 13 13 13 12 12 11 10 9 8 7 6 5 5 5 4 4 4 4 5 5 5 6 6 6 6 7 7 7
23 21 20 19 19 18 17 16 16 15 15 14 14 14 14 13 13 13 12 11 10 9 8 7 6 5 4 4 4 4 4 4 4 4 4 5 5 5 6 6 6 7 7 7

GEFSCGP_850_meantemp_042.txt.gz
Temperature
26 23 23 23 24 25 25 26 26 27 28 27 26 25 24 24 22 21 20 19 18 17 18 19 19 19 19 20 19 19 18 18 17 17 17 17 18 18 18 19 19 19 19 20
23 23 25 27 27 27 27 26 26 26 27 27 24 23 22 21 20 19 18 17 16 16 17 17 18 18 19 19 18 19 18 17 17 17 17 17 18 18 19 19 19 19 19 19
25 26 28 28 27 27 27 26 26 26 26 24 24 21 20 20 19 18 17 16 16 16 16 16 17 17 18 18 18 18 17 17 17 17 17 17 18 18 18 19 18 19 19 19
25 26 27 27 27 27 26 27 27 26 24 21 22 21 20 18 18 17 16 16 15 15 16 16 16 17 17 17 17 17 17 17 17 17 17 17 18 18 18 18 18 18 18 18
24 25 25 25 27 27 27 27 26 25 23 21 20 20 19 18 17 16 16 15 15 15 16 16 16 16 16 16 16 16 16 16 16 16 17 17 17 17 17 17 17 17 17 17
24 25 25 25 26 27 27 25 23 20 19 20 20 19 18 16 16 16 16 15 16 16 16 16 16 16 16 16 16 16 16 16 16 16 16 16 16 16 16 16 17 16 16 16
23 24 25 26 26 26 25 21 20 20 18 19 18 18 17 16 17 17 16 16 16 16 16 16 16 16 16 16 16 16 16 15 15 15 15 15 15 15 15 15 15 15 15 15
22 22 24 25 25 24 24 22 20 20 19 18 18 18 17 17 16 16 16 16 16 16 16 16 16 16 16 16 15 15 15 15 15 15 14 14 14 14 14 14 14 14 14 14
21 22 25 26 26 25 24 22 21 19 20 19 17 17 17 16 16 16 16 16 16 16 16 16 16 16 16 16 15 15 15 14 14 14 14 13 13 13 13 13 13 12 13 13
22 23 24 25 24 24 23 22 18 19 19 19 19 18 16 16 16 16 16 16 16 16 16 16 16 16 16 16 15 14 14 14 14 13 13 13 12 12 12 12 12 12 12 12
23 21 22 22 22 23 22 21 19 17 17 18 18 18 18 16 16 15 15 16 17 17 17 17 17 16 16 15 15 14 14 14 13 13 13 13 12 12 12 11 11 11 11 11
22 19 19 21 22 22 22 21 19 18 18 17 17 17 18 16 16 16 16 17 17 17 17 16 16 16 15 15 14 14 14 13 13 13 12 12 12 12 11 11 11 11 11 10
22 19 18 19 20 21 21 21 19 17 16 17 17 17 17 16 16 16 16 16 16 16 16 15 15 15 14 14 14 13 13 13 13 12 12 12 12 11 11 11 11 11 10 10
21 18 19 19 20 20 20 21 20 18 16 17 17 17 16 15 15 15 16 16 15 15 15 14 14 14 14 13 13 13 13 13 12 12 12 12 12 11 11 11 11 11 10 10
19 19 20 20 21 21 20 21 20 19 18 17 17 16 15 15 15 15 15 15 15 14 14 14 14 13 13 13 13 13 12 12 12 12 12 12 11 11 11 11 10 10 10 10
18 19 19 19 21 20 20 20 20 19 18 18 16 15 15 15 15 15 15 14 14 14 13 13 13 13 13 13 12 12 12 12 12 12 11 11 11 11 11 10 10 10 10 10
19 19 18 18 20 20 17 18 18 18 17 16 15 14 14 13 13 14 14 14 14 14 13 13 13 13 13 12 12 12 12 12 11 11 11 11 11 10 10 10 10 10 10 9
19 18 16 17 18 19 18 19 19 17 15 15 15 14 14 14 14 14 14 14 14 13 13 13 13 13 12 12 12 11 11 11 11 11 10 10 10 10 10 9 9 9 9 9
18 18 17 16 18 18 18 18 18 17 15 15 14 13 14 14 13 13 14 14 13 13 13 13 12 12 11 11 10 10 10 10 9 9 9 9 9 9 9 9 9 9 9 9
18 17 17 17 18 18 17 18 19 17 15 14 14 13 13 12 10 11 13 13 13 12 12 11 11 10 10 9 9 8 8 8 8 7 7 7 7 7 7 8 8 8 8 8
18 16 16 17 17 17 17 18 17 14 13 14 14 14 13 12 11 13 13 13 12 11 10 10 9 9 8 8 7 7 6 6 6 6 6 6 6 6 6 6 7 7 7 7
17 16 16 15 16 16 17 16 14 14 15 15 14 14 14 13 13 13 12 11 11 10 9 9 8 7 7 6 6 5 5 5 5 5 5 5 5 5 5 5 6 6 6 6
17 16 15 15 15 16 17 16 16 15 15 14 14 14 13 13 13 12 11 10 9 9 8 7 7 6 6 5 5 5 5 5 5 5 5 5 5 5 5 5 5 5 6 6
17 17 15 15 16 16 16 16 15 15 14 14 14 13 13 12 12 11 10 9 8 8 7 7 6 5 5 5 5 5 5 5 5 5 5 5 4 5 5 5 5 5 5 6
17 17 15 15 16 16 16 15 15 15 14 14 13 13 12 12 11 10 9 8 8 7 7 6 5 5 5 5 5 5 5 5 5 5 5 5 5 4 4 5 5 5 5 6
16 15 15 14 15 14 15 15 15 14 14 13 13 12 12 11 10 9 9 8 7 7 6 5 5 5 5 5 5 5 5 5 5 5 5 5 5 5 5 5 5 5 5 6

GEFSCGP_850_meantemp_048.txt.gz
Temperature
23 21 21 21 21 22 23 23 23 22 22 19 18 17 17 17 16 16 15 15 15 15 16 16 16 17 17 17 17 17 17 17 17 17 16 16 16 16 16 16 16 16 16 17
21 22 23 23 23 22 22 23 23 22 21 19 18 17 17 16 16 15 15 15 15 16 16 16 16 16 17 17 17 17 17 16 16 16 16 16 15 16 16 16 16 16 16 16
23 23 24 25 25 24 24 23 24 23 21 19 18 17 17 17 16 15 15 15 15 16 16 16 16 17 17 17 17 17 17 16 16 16 16 16 16 16 16 16 16 16 16 16
23 24 24 24 25 25 24 24 24 23 21 19 20 18 17 16 16 15 15 15 15 16 16 16 16 17 17 17 17 17 17 17 16 16 16 16 16 15 15 15 16 16 16 16
23 24 24 24 25 25 24 23 22 22 20 18 18 17 17 16 16 15 15 15 15 16 16 16 16 17 17 17 17 17 17 17 17 16 16 16 16 15 15 15 15 15 15 16
22 23 23 24 24 24 23 21 20 17 17 19 18 18 17 15 16 16 15 15 15 15 16 16 16 16 16 16 16 16 16 17 16 16 16 16 15 15 15 15 15 15 15 15
21 22 23 23 24 23 21 20 19 19 18 18 17 17 17 17 16 16 15 15 15 15 15 16 16 16 16 16 16 16 16 16 16 16 16 15 15 15 15 14 14 14 14 14
21 21 22 23 23 22 21 20 19 19 19 18 17 17 17 16 16 16 16 15 15 15 15 15 15 15 15 15 15 15 15 15 15 15 15 15 14 14 14 14 13 13 13 13
21 21 22 23 22 22 21 18 18 17 18 17 17 17 17 16 16 15 15 15 15 15 15 15 15 15 15 15 15 14 14 14 14 14 14 14 14 13 13 13 13 12 12 12
21 21 21 21 22 20 20 17 16 17 18 18 18 17 16 16 15 14 14 15 15 15 15 15 15 15 15 14 14 14 14 13 13 13 13 13 13 13 13 12 12 12 12 11
20 20 20 20 19 19 19 18 15 14 15 17 17 16 15 14 14 14 14 15 15 15 15 15 15 15 14 14 14 13 13 13 13 13 13 13 12 12 12 12 12 11 11 11
18 17 18 19 19 19 19 18 16 17 16 15 15 15 14 13 13 14 14 15 15 15 15 15 14 14 14 13 13 13 13 13 13 12 12 12 12 12 12 12 12 11 11 11
18 17 17 18 18 18 18 17 15 14 13 14 15 15 14 13 14 14 15 15 15 15 14 14 13 13 13 13 13 12 12 12 12 12 12 12 12 12 12 12 11 11 11 11
17 16 17 18 18 18 18 18 17 15 14 15 15 15 14 13 13 13 14 15 14 14 14 13 13 12 12 12 12 12 12 12 11 11 11 11 11 11 11 11 11 11 11 11
17 17 18 18 18 18 18 18 17 17 16 15 15 15 14 13 13 14 14 14 13 13 13 12 12 12 11 11 11 11 11 11 10 10 10 11 11 11 11 11 11 11 11 11
16 17 18 18 18 18 17 17 17 17 17 16 15 14 13 14 13 13 13 13 13 12 12 12 11 11 10 10 10 9 9 9 9 9 9 9 9 9 10 10 10 10 10 10
15 16 17 17 17 17 17 17 17 16 15 15 14 13 13 12 12 13 13 12 12 12 11 11 10 10 9 9 8 8 8 8 7 7 7 7 8 8 8 9 9 9 9 10
15 14 13 15 17 18 16 17 17 16 15 14 13 13 12 12 13 13 13 12 11 11 10 10 9 8 8 8 7 7 6 6 6 6 6 6 6 6 6 7 7 8 8 8
14 15 14 14 16 17 17 17 16 15 13 13 13 12 12 13 11 11 12 11 10 10 9 9 8 7 7 7 6 6 6 6 5 5 5 5 5 5 5 6 6 6 7 7
14 13 14 15 17 17 16 17 17 15 13 13 13 11 12 10 8 9 11 10 10 9 8 8 7 7 7 6 6 5 5 5 5 5 5 5 5 5 5 5 5 5 6 6
17 15 15 15 16 15 16 16 16 15 14 14 13 13 12 10 10 11 10 10 9 8 8 7 7 6 6 6 5 5 5 5 5 5 5 5 5 5 5 5 5 5 5 5
16 15 14 13 15 16 16 15 14 14 15 14 14 13 12 11 11 10 10 9 8 8 7 7 6 6 6 6 5 5 5 5 5 5 5 5 5 5 4 4 4 5 5 5
14 14 13 13 14 15 16 16 16 15 14 14 13 12 12 11 10 9 9 8 8 7 7 6 6 6 6 6 5 5 5 5 5 5 5 5 5 5 4 4 4 4 4 4
15 12 12 13 13 15 16 15 15 14 14 13 12 12 11 10 9 9 8 8 7 7 6 6 5 5 5 6 5 5 5 5 5 5 5 5 5 5 4 4 4 4 4 4
15 13 13 14 14 15 15 15 15 14 13 13 12 11 10 10 9 8 8 7 7 6 6 6 5 5 5 5 5 5 5 5 5 5 5 5 5 4 4 4 4 4 4 4
13 13 13 14 16 14 16 16 15 14 13 12 11 11 10 9 8 8 7 7 7 6 6 6 6 6 5 5 6 6 5 5 5 5 5 5 5 5 5 5 5 5 4 5

GEFSCGP_850_meantemp_054.txt.gz
Temperature
28 29 29 29 30 29 29 29 29 28 27 27 26 24 23 22 21 21 20 19 18 17 16 16 16 16 16 16 16 16 17 17 17 16 16 16 16 16 16 16 16 16 16 16
29 29 29 29 29 29 29 29 29 27 26 26 25 24 23 22 21 20 20 19 18 18 17 16 16 16 16 16 16 16 16 17 17 16 16 16 16 16 16 15 15 15 15 15
29 29 29 29 29 29 29 29 29 28 26 26 25 24 23 23 21 20 20 19 19 18 18 17 17 16 16 16 16 16 17 16 16 16 16 16 16 16 15 15 15 15 15 15
29 29 29 29 29 29 28 29 29 27 27 27 27 26 24 23 23 22 21 20 19 18 18 18 17 17 16 16 16 16 16 16 16 16 15 15 15 15 15 15 15 15 15 15
29 28 28 28 28 28 28 28 28 28 28 27 27 27 24 24 23 23 22 20 20 19 18 18 17 17 16 16 16 16 16 16 16 15 15 15 15 15 15 14 14 14 14 14
28 28 28 28 28 28 28 28 28 28 28 26 26 26 24 24 23 23 22 21 19 19 18 18 17 17 17 16 16 16 15 15 15 15 15 14 14 14 14 14 14 14 14 14
28 28 28 28 28 28 28 28 27 26 26 26 26 26 23 23 23 22 22 21 20 19 19 18 18 17 17 16 16 16 15 15 14 14 14 14 14 13 13 13 14 14 14 14
27 27 27 28 27 27 27 27 26 25 25 26 25 24 23 22 21 21 21 20 20 19 19 18 18 17 17 16 16 15 14 14 14 14 13 13 13 13 13 13 13 13 13 13
27 27 27 27 27 27 27 27 27 27 26 26 25 24 22 22 22 21 21 20 20 20 19 18 18 17 17 16 15 14 14 13 13 13 13 13 13 12 12 12 12 12 12 13
28 26 27 27 28 26 27 27 27 26 25 25 25 24 23 22 22 22 21 21 20 19 19 18 17 17 16 15 14 14 13 13 13 12 12 13 12 12 12 12 12 12 11 11
28 27 27 27 26 25 26 26 26 26 25 24 24 24 23 22 22 22 21 20 19 19 18 17 17 16 15 14 14 14 13 12 12 12 11 11 11 11 11 11 11 11 11 11
26 27 26 26 25 26 26 25 25 25 24 24 24 24 22 22 22 21 20 19 18 18 17 16 16 15 14 14 13 13 12 12 12 11 11 11 10 10 10 11 11 11 10 10
26 26 26 25 25 26 25 25 25 25 25 24 24 24 22 22 22 21 20 19 18 17 16 16 15 14 14 13 12 12 11 11 11 11 10 10 10 10 10 10 10 10 10 10
25 26 26 25 25 25 25 24 24 25 24 24 23 23 24 23 22 21 19 18 17 16 16 15 14 13 13 12 11 11 11 10 10 10 9 9 9 9 9 9 9 9 9 9
26 26 26 25 25 25 25 24 24 24 23 23 23 23 23 22 21 19 18 17 16 16 15 14 13 13 12 11 11 10 10 9 9 9 8 8 8 8 8 8 8 8 8 8
26 25 25 25 25 25 24 24 23 23 23 23 23 23 23 21 20 19 18 16 16 15 14 13 13 12 11 10 10 9 9 8 8 8 8 8 7 7 7 7 7 7 7 7
26 25 25 25 25 24 24 24 23 23 23 23 22 22 22 21 19 18 16 15 15 14 13 12 12 11 10 10 9 9 8 8 8 7 7 7 7 7 7 7 7 7 7 7
25 24 25 25 24 23 24 24 24 23 23 23 23 22 21 20 18 17 16 15 14 13 12 11 11 10 10 10 9 8 8 8 7 7 7 7 7 6 6 6 6 6 6 6
24 24 25 25 25 25 24 23 23 22 22 23 22 21 20 19 18 19 16 14 13 12 11 11 10 10 9 9 8 8 7 7 7 7 6 6 6 6 6 6 6 6 6 6
23 24 25 24 23 23 24 23 22 22 22 22 21 20 19 18 18 18 15 13 12 11 11 10 9 9 9 8 7 7 7 7 6 6 6 6 6 6 6 6 5 5 5 5
24 24 24 24 24 25 24 23 22 22 22 21 20 19 18 17 16 15 14 13 12 11 10 10 9 9 8 7 7 6 6 6 6 6 6 6 6 6 6 5 5 5 5 5
25 25 24 24 23 24 23 23 22 22 20 19 18 18 17 16 15 14 13 12 11 11 10 10 9 8 7 7 6 6 6 6 6 6 6 6 6 6 6 5 5 5 5 5
25 25 25 24 24 23 22 22 21 20 19 18 18 17 16 15 15 14 13 12 11 10 10 9 8 8 7 7 6 6 6 6 5 5 5 6 6 6 6 5 5 5 5 5
25 22 23 23 24 23 22 21 20 19 18 17 17 16 15 15 14 13 12 11 10 10 9 9 8 7 7 7 6 6 6 6 6 5 6 6 6 6 6 6 6 5 5 5
25 23 23 23 23 23 22 21 20 19 18 17 16 15 14 14 13 12 12 11 10 9 9 8 8 7 7 7 6 6 6 6 6 6 6 6 6 6 6 6 6 6 5 5
25 24 23 24 24 23 23 21 19 18 17 16 16 15 14 13 13 12 11 10 10 9 9 8 8 7 7 6 6 6 6 6 6 6 6 6 6 6 6 6 6 6 5 5

GEFSCGP_850_meantemp_060.txt.gz
Temperature
30 29 28 28 29 30 30 29 28 28 29 29 29 28 27 27 26 25 24 22 21 20 20 19 19 18 18 18 18 18 18 18 18 18 18 17 17 17 17 17 17 16 16 16
29 27 28 29 29 30 30 30 28 27 28 28 28 28 27 27 26 25 24 23 22 21 20 20 19 19 18 18 18 18 17 17 17 17 17 17 17 17 17 17 16 16 16 16
28 27 29 29 29 29 29 29 28 27 27 27 27 25 24 24 24 24 24 23 23 22 21 20 20 19 19 18 18 18 17 17 17 17 17 16 16 17 17 16 16 16 16 16
29 30 30 29 29 28 27 28 28 27 26 25 25 23 21 21 23 24 24 24 23 22 22 21 20 20 19 19 18 18 17 17 16 16 16 16 16 16 16 16 16 16 15 15
28 29 29 29 30 29 28 29 28 26 25 24 22 21 19 20 21 23 24 24 23 23 22 21 21 20 20 19 19 18 18 17 16 16 16 15 15 15 15 15 15 15 15 15
28 30 30 30 31 30 30 29 26 22 21 20 19 19 20 20 21 23 24 24 23 23 22 21 21 20 20 19 19 18 18 17 16 15 15 15 15 14 14 14 14 14 14 15
26 28 30 31 30 30 30 27 24 20 18 18 20 20 21 23 24 24 25 24 24 23 22 22 21 20 20 19 19 18 17 16 16 15 15 14 14 14 14 14 14 14 14 14
25 26 29 31 30 29 29 28 25 23 22 21 21 20 22 25 25 25 25 24 24 23 23 22 21 20 20 19 18 18 17 16 15 15 14 14 13 13 13 13 13 13 13 13
28 28 31 31 31 30 29 29 29 28 26 24 23 22 23 25 25 26 25 25 24 23 23 22 21 20 19 19 18 17 16 16 15 14 14 13 13 13 13 13 13 12 13 13
30 29 30 31 31 31 30 30 29 28 26 26 25 23 22 24 25 26 25 25 24 23 22 21 20 20 19 18 17 16 16 15 14 14 13 13 13 12 12 12 12 12 12 12
30 29 29 30 29 29 29 29 28 28 27 26 25 24 25 25 25 25 25 24 23 22 21 21 20 19 18 17 16 16 15 14 14 13 13 12 12 12 11 11 11 11 11 11
30 29 27 27 28 29 30 29 28 26 26 27 26 24 27 27 27 25 24 24 22 22 21 20 19 18 17 16 15 15 14 13 13 12 12 12 11 11 11 11 10 10 10 10
29 28 26 24 25 27 29 29 29 28 27 27 26 25 27 27 26 25 24 23 22 21 20 19 18 17 16 15 14 14 13 13 12 12 11 11 11 10 10 10 10 10 10 10
28 28 27 26 27 28 29 29 28 28 26 26 26 26 27 26 25 24 23 22 21 20 19 18 17 16 15 14 14 13 12 12 11 11 11 10 10 10 10 9 9 9 9 9
29 28 28 29 29 29 29 29 28 27 27 26 26 26 26 25 24 23 22 21 20 19 18 17 16 15 14 14 13 12 12 11 11 10 10 10 9 9 9 9 9 9 9 9
29 27 27 27 28 28 28 29 28 27 27 27 26 26 26 25 24 23 22 21 20 19 18 17 16 15 14 13 12 12 11 11 10 10 10 9 9 9 9 8 8 8 8 8
28 27 26 27 28 28 27 28 28 27 27 27 26 25 25 24 23 22 21 20 19 18 17 16 15 14 13 13 12 11 11 10 10 9 9 9 8 8 8 8 8 8 8 8
27 27 26 26 27 25 27 29 28 27 27 27 26 25 25 24 23 22 19 18 18 17 16 15 14 14 13 12 12 11 10 10 9 9 9 8 8 8 8 8 8 8 7 7
28 27 26 26 26 26 27 27 27 26 25 26 25 24 24 23 23 21 19 18 17 16 15 14 14 13 13 12 11 10 10 9 9 9 8 8 8 7 7 7 7 7 7 7
28 27 26 26 25 25 27 27 27 26 24 24 24 24 23 22 21 21 19 18 17 16 15 14 13 13 12 11 11 10 9 9 8 8 8 7 7 7 7 7 7 7 7 7
27 26 26 26 25 26 27 27 27 25 23 24 23 23 22 21 20 19 19 18 16 15 15 14 13 12 12 11 10 9 9 8 8 8 7 7 7 7 7 7 8 7 7 7
28 27 27 26 25 25 27 27 26 24 24 23 23 22 21 21 20 19 18 17 16 15 14 13 13 12 11 11 10 9 9 8 8 8 7 7 7 7 7 8 8 8 7 7
28 28 27 26 26 26 26 26 25 24 24 23 22 22 21 20 19 19 18 16 15 15 14 13 12 12 11 10 9 9 8 8 8 8 8 7 8 8 8 8 8 8 7 7
29 28 27 26 27 27 26 26 25 24 23 23 22 21 21 20 19 18 17 16 15 14 13 13 12 11 11 10 9 9 8 8 8 7 7 7 7 8 8 8 8 7 7 7
27 27 27 26 27 27 26 26 25 24 23 23 22 21 20 19 19 18 17 16 14 14 13 12 12 11 10 10 9 8 8 8 7 7 7 7 8 8 8 8 8 8 7 7
28 28 27 26 26 26 26 25 25 24 23 22 21 20 20 19 18 17 16 15 14 13 13 12 11 11 10 9 9 8 8 7 7 7 7 7 8 8 8 8 8 8 7 7

GEFSCGP_850_meantemp_066.txt.gz
Temperature
26 23 22 23 23 23 23 23 22 22 23 21 19 19 18 18 18 18 18 18 19 19 19 19 19 19 19 19 19 19 19 19 18 18 18 18 17 17 17 16 16 16 16 16
23 23 24 25 25 24 24 22 21 21 22 21 19 18 18 18 17 17 18 18 19 19 19 19 19 19 19 19 19 19 19 18 18 18 17 17 17 17 16 16 16 16 15 15
24 24 26 26 25 24 23 22 21 21 21 21 20 18 17 18 18 18 19 19 19 19 20 20 19 19 19 19 19 19 19 18 18 17 17 17 16 16 16 16 16 15 15 15
24 25 26 25 25 24 22 23 23 22 20 18 19 18 17 16 17 18 18 19 19 20 20 20 20 20 20 19 19 19 18 18 17 17 17 16 16 16 15 15 15 15 15 15
24 25 25 25 25 25 22 23 22 21 18 17 18 17 17 16 17 18 18 19 20 20 20 20 20 20 20 19 19 18 18 17 17 16 16 16 15 15 15 14 14 14 14 14
24 25 25 25 26 25 23 21 19 17 17 17 17 17 17 16 17 17 18 20 21 21 21 21 20 20 19 19 18 18 17 17 16 16 15 15 15 14 14 14 13 13 13 13
23 24 25 26 25 24 22 19 18 18 17 17 17 17 17 17 18 18 19 20 21 21 21 21 20 20 19 18 18 17 17 16 16 15 15 14 14 13 13 13 13 13 12 12
23 23 25 26 25 24 23 21 19 19 18 17 17 17 17 19 19 19 20 20 21 21 21 20 20 19 19 18 17 17 16 16 15 15 14 14 13 13 13 12 12 12 12 12
22 23 26 27 27 25 24 21 20 18 17 17 17 17 19 19 19 20 20 20 20 20 20 20 19 19 18 18 17 16 16 15 14 14 13 13 13 12 12 12 12 11 11 11
23 24 24 25 25 25 24 22 19 18 18 18 18 18 17 19 19 19 19 20 20 20 20 19 19 18 18 17 16 16 15 14 14 13 13 12 12 12 11 11 11 11 11 11
23 22 23 23 24 24 24 23 20 18 18 17 18 18 20 19 19 18 19 20 20 20 19 19 18 18 17 16 16 15 14 14 13 12 12 12 11 11 11 11 10 10 10 10
23 19 20 22 23 24 23 23 20 20 19 17 17 18 21 19 19 20 20 20 20 19 19 18 18 17 16 16 15 14 13 13 12 12 11 11 11 11 10 10 10 10 10 10
23 19 20 20 21 23 24 24 21 18 17 17 17 19 20 19 19 21 20 20 19 19 18 17 17 16 15 15 14 13 13 12 12 11 11 11 10 10 10 9 9 9 9 9
22 20 20 21 21 22 23 24 23 20 18 19 18 19 19 19 19 19 20 19 19 18 17 17 16 15 15 14 13 13 12 12 11 11 11 10 10 10 9 9 9 9 9 9
22 22 23 23 24 24 24 25 24 22 20 19 19 18 18 18 18 19 19 18 18 17 17 16 15 15 14 13 13 12 12 12 11 11 10 10 9 9 9 9 8 8 8 8
21 22 23 22 24 24 24 24 24 23 22 20 19 19 19 19 19 18 18 18 17 17 16 16 15 14 14 13 13 12 12 11 11 10 10 9 9 9 9 8 8 8 8 8
20 21 21 20 22 23 22 23 23 23 22 21 19 19 19 17 17 17 18 18 17 16 16 15 14 14 13 13 12 12 11 11 10 10 9 9 9 8 8 8 8 8 8 8
20 20 18 19 20 22 21 23 23 21 20 20 19 19 18 18 18 18 18 18 17 16 16 15 14 14 13 12 12 11 11 10 10 10 9 9 8 8 8 8 8 8 8 8
20 20 19 18 20 21 22 23 22 20 20 20 19 19 19 18 17 17 18 17 17 16 15 15 14 13 13 12 12 11 11 10 10 9 9 8 8 8 8 8 8 8 8 8
19 19 19 19 20 20 21 23 23 20 19 20 20 19 19 18 15 15 17 17 17 16 15 14 14 13 12 12 11 11 10 10 9 9 9 8 8 8 8 8 8 8 8 8
21 20 19 19 19 20 22 24 23 21 19 21 21 21 20 18 17 19 18 17 17 16 15 14 14 13 12 12 11 11 10 9 9 9 8 8 8 8 8 8 8 8 8 8
20 19 19 18 19 20 22 23 21 20 22 22 22 21 21 20 19 18 18 17 17 16 15 14 13 13 12 11 11 10 10 9 9 9 8 8 8 8 8 8 8 8 8 8
20 19 18 18 19 21 24 24 24 24 23 22 22 21 21 20 19 19 18 17 16 16 15 14 13 12 12 11 11 10 10 9 9 9 8 8 8 8 8 8 8 8 8 8
21 21 20 20 20 22 24 25 24 24 23 23 22 21 21 20 19 19 18 17 16 15 15 14 13 12 12 11 10 10 9 9 9 8 8 8 8 8 8 8 8 8 8 8
21 22 20 20 21 23 24 24 24 24 23 22 22 21 21 20 19 19 18 17 16 15 14 14 13 12 11 11 10 10 9 9 9 9 8 8 8 8 8 8 8 8 8 8
20 21 20 20 21 20 23 24 24 23 23 22 22 21 21 20 20 19 18 17 16 15 14 13 13 12 11 11 10 10 9 9 9 9 9 8 8 8 8 8 9 9 8 8

GEFSCGP_850_meantemp_072.txt.gz
Temperature
22 20 20 21 21 22 21 21 20 20 20 19 18 17 17 17 17 17 17 17 18 18 19 19 19 19 19 19 19 19 19 18 18 18 18 17 17 17 17 16 16 16 16 16
21 21 22 22 22 21 21 21 20 20 20 19 17 17 17 17 17 17 17 17 18 18 19 19 19 19 19 19 19 19 18 18 18 18 17 17 17 17 16 16 16 16 15 15
23 23 23 23 22 22 21 21 20 19 19 18 18 17 17 17 17 17 17 18 18 19 19 19 19 19 19 19 19 19 18 18 18 17 17 17 16 16 16 16 15 15 15 15
22 23 23 23 22 22 21 21 21 20 18 17 18 17 17 16 16 17 17 18 19 19 19 20 19 19 19 19 18 18 18 18 17 17 16 16 16 15 15 15 15 14 14 14
23 23 23 23 23 22 20 20 19 18 17 17 16 17 17 16 17 17 17 18 19 19 19 19 19 19 19 19 18 18 18 17 17 16 16 15 15 15 14 14 14 14 13 13
23 23 23 23 22 21 20 19 17 16 16 17 16 16 17 16 17 17 18 18 19 19 19 19 19 19 19 18 18 18 17 17 16 16 15 15 14 14 14 13 13 13 12 12
22 23 23 22 21 21 19 18 17 18 16 17 16 16 16 17 17 17 18 19 20 19 19 20 19 19 19 18 18 17 17 16 16 15 15 14 14 13 13 12 12 12 12 12
22 22 23 23 22 20 19 19 18 19 18 16 16 16 17 18 18 18 19 19 19 20 20 20 19 19 18 18 17 17 16 16 15 14 14 13 13 12 12 12 12 11 11 11
22 22 24 24 23 21 19 18 17 15 16 16 17 17 18 18 18 18 18 19 19 20 20 19 19 19 18 17 17 16 15 15 14 14 13 13 12 12 12 11 11 11 11 11
21 22 23 23 23 21 20 16 15 16 17 18 18 18 17 19 19 18 18 19 19 20 19 19 19 18 17 17 16 15 15 14 13 13 12 12 12 11 11 11 10 10 10 10
21 21 22 22 23 22 20 18 15 14 16 16 17 17 18 18 18 18 18 19 20 20 19 19 18 17 17 16 15 15 14 13 13 12 12 12 11 11 11 10 10 10 10 9
19 18 19 21 21 21 22 20 16 18 17 15 16 17 18 17 17 18 19 20 20 19 19 18 18 17 16 16 15 14 13 13 12 12 12 11 11 11 10 10 10 9 9 9
19 18 19 19 20 21 21 20 17 15 14 14 16 18 18 17 18 18 19 19 19 19 18 18 17 17 16 15 14 14 13 12 12 12 11 11 11 10 10 10 9 9 9 9
19 18 19 20 20 21 21 21 18 17 16 16 16 18 18 18 18 18 18 19 19 18 18 17 17 16 15 15 14 13 13 12 12 11 11 10 10 10 9 9 9 9 9 9
19 20 20 19 20 21 21 21 20 19 17 17 18 17 17 17 17 18 18 18 18 18 18 17 17 16 15 14 13 13 12 12 11 11 10 10 10 9 9 9 9 9 8 8
18 20 21 21 21 21 21 21 21 20 19 18 18 18 17 17 18 18 18 18 18 18 18 17 16 15 15 14 13 12 12 11 11 10 10 10 9 9 9 9 8 8 8 8
17 18 19 19 20 21 21 21 21 21 20 18 18 18 17 17 16 18 18 18 18 18 18 17 16 15 14 13 13 12 11 11 10 10 10 9 9 9 9 8 8 8 8 8
16 16 16 18 20 21 20 20 20 20 20 18 18 18 16 18 19 19 19 19 19 18 17 16 16 15 14 13 12 12 11 11 10 10 9 9 9 9 8 8 8 8 8 8
15 16 15 16 19 20 20 20 19 20 20 19 18 17 17 17 17 18 19 19 19 18 17 16 15 14 14 13 12 11 11 10 10 10 9 9 9 8 8 8 8 8 8 8
15 15 15 16 19 19 20 21 20 20 20 19 18 17 16 16 15 16 20 19 18 18 17 16 15 14 13 13 12 11 11 10 10 9 9 9 8 8 8 8 8 8 8 8
18 17 17 16 18 18 19 20 20 20 19 21 20 19 17 16 18 20 20 19 18 18 17 16 15 14 13 12 12 11 11 10 10 9 9 9 9 8 8 8 8 8 8 8
18 17 16 15 18 19 20 19 19 20 22 23 22 22 21 21 21 20 20 19 18 17 17 16 15 14 13 12 12 11 11 10 10 10 9 9 9 8 8 8 8 8 8 8
16 16 16 16 18 19 20 21 23 23 23 24 23 22 22 21 21 20 20 19 18 18 17 16 15 14 13 12 12 11 11 10 10 10 9 9 9 9 9 8 8 8 8 8
17 15 15 16 17 19 22 23 23 24 24 24 24 23 22 21 21 20 20 19 18 18 17 16 15 14 14 13 12 11 11 10 10 10 10 9 9 9 9 9 8 8 8 8
18 18 17 17 17 20 23 24 24 24 24 23 23 23 22 22 21 21 20 19 19 18 17 16 15 15 14 13 12 11 11 10 10 10 10 9 9 9 9 9 9 9 8 8
15 16 17 17 20 18 22 23 23 23 23 23 23 22 22 22 21 21 20 20 19 18 17 16 16 15 14 13 12 12 11 11 10 10 10 10 9 9 9 9 9 9 9 8